Vorticity
7 6 4 6 7 7 8 3 2 -2 -1 -5 -1 4 2 -1 4 -1 2 4 6 6 10 6 4 3 3 3 2 2 1 1 2 4 3 3 4 3 4 5 8 10 9 8 5 5 3 3 3
8 9 9 7 8 10 10 6 6 4 7 -1 3 3 8 4 9 7 10 8 5 6 6 6 9 5 4 4 4 3 4 4 2 -0 1 3 3 4 5 6 8 8 8 7 6 5 5 4 3
7 7 8 8 8 13 11 5 -1 -9 -0 2 3 9 2 6 8 7 9 5 5 9 7 6 5 6 8 9 7 7 6 5 5 5 5 7 5 5 7 7 7 8 9 7 6 6 6 5 5
6 6 4 7 10 11 13 8 -2 10 -7 -0 -0 -3 7 19 8 8 10 8 7 7 8 6 6 5 5 4 4 6 7 7 6 5 6 5 6 4 8 8 7 7 7 6 4 7 9 7 5
9 5 5 7 9 8 9 8 -3 5 6 4 13 12 5 6 8 8 6 6 4 4 6 6 6 6 6 6 6 6 6 5 5 5 5 6 6 8 8 6 7 6 6 5 3 5 5 9 8
10 2 7 6 9 8 7 5 4 -6 3 3 0 7 5 4 4 6 4 5 3 3 3 4 7 8 6 6 6 5 5 5 5 5 6 6 5 6 7 7 7 4 5 6 2 3 7 7 8
9 2 10 8 10 14 10 20 6 0 -4 -2 5 2 4 5 4 4 3 4 -1 3 3 3 3 5 7 5 5 5 6 4 4 5 5 5 6 7 6 4 2 3 3 4 9 8 9 8 8
14 10 14 12 11 11 10 4 5 0 6 5 6 4 4 6 2 2 3 4 4 6 5 4 6 5 4 5 6 5 4 5 5 5 4 5 5 5 6 6 4 5 3 2 5 7 7 7 9
3 5 15 12 9 10 9 9 0 4 7 5 7 6 8 7 3 2 3 2 9 3 2 4 4 6 8 8 6 4 4 4 5 5 5 5 5 5 7 5 4 3 4 6 7 6 5 6 6
3 3 3 2 4 6 15 18 17 9 10 10 12 8 8 5 11 8 6 5 4 4 2 4 5 6 5 3 5 7 6 5 5 6 5 5 6 5 5 6 5 5 4 4 6 6 5 6 6
4 4 2 3 1 -1 -1 -1 2 10 13 11 8 9 9 9 11 10 8 10 9 8 4 4 5 4 5 6 7 6 6 4 3 4 7 7 6 7 6 7 5 5 5 3 3 4 6 5 7
5 3 0 -4 -2 -0 2 -1 -5 -5 9 7 6 8 9 5 6 6 9 4 8 9 7 4 5 12 8 8 8 6 7 6 6 7 6 7 6 8 7 5 5 4 4 4 3 2 5 6 5
2 1 2 0 0 -2 1 1 6 8 6 9 3 2 4 7 8 7 6 7 6 7 4 2 7 8 5 4 3 5 8 7 7 6 7 5 6 6 7 7 7 5 5 5 5 4 3 6 5
3 1 -4 -1 2 4 3 1 3 5 7 7 4 2 3 5 4 9 5 5 7 6 4 6 6 5 7 8 7 7 5 6 6 4 6 8 7 7 3 7 7 7 7 5 6 5 6 7 5
4 8 1 -6 1 3 3 7 5 14 8 12 7 6 2 7 1 6 8 8 7 9 10 8 3 8 8 8 8 7 7 7 6 9 8 9 6 9 2 8 6 8 8 7 6 8 8 5 4
-0 4 13 -2 4 9 5 18 -2 6 4 3 9 7 6 6 8 1 4 5 9 9 9 10 12 10 8 8 10 11 11 9 8 7 8 10 7 9 2 6 6 9 8 6 4 6 2 7 7
5 1 1 -5 1 4 5 0 17 -0 10 8 11 5 1 4 7 9 6 2 2 12 7 4 4 6 10 12 10 10 10 9 8 8 8 8 9 9 4 4 6 8 10 11 8 6 5 1 6
2 8 5 13 12 8 11 1 3 8 6 9 21 18 5 7 17 5 4 6 4 12 10 6 1 3 11 12 11 9 8 9 7 8 7 7 8 8 13 3 7 7 9 9 7 8 5 7 7
8 4 8 5 8 9 15 3 1 23 31 26 25 30 29 13 4 10 10 5 7 1 9 9 10 12 10 7 10 10 9 9 10 9 11 11 9 11 10 8 9 6 7 7 11 7 6 1 2
6 13 8 9 17 15 17 15 28 44 25 -5 22 1 -2 -1 6 17 4 20 8 7 10 10 10 11 7 4 6 8 8 7 10 11 10 10 9 6 9 7 6 2 3 6 6 0 3 2 5
14 16 22 23 25 15 22 22 13 19 49 16 45 16 3 13 5 19 17 7 11 23 12 11 9 11 8 6 7 7 6 9 8 9 9 9 7 6 4 5 7 8 5 4 6 -1 -12 46 -9
12 15 15 20 14 17 12 20 16 38 32 27 -4 5 12 11 -2 18 16 12 8 10 9 9 11 10 10 7 6 7 6 8 9 9 6 6 4 5 5 5 9 10 10 10 5 6 21 -20 38
10 2 -4 11 11 8 30 10 27 39 -5 27 4 -9 -7 16 -5 -21 21 34 3 14 10 7 10 10 8 9 8 7 7 7 8 5 7 8 8 11 11 8 5 3 5 6 9 4 6 -1 -5
9 14 16 5 12 -1 11 34 25 31 25 35 25 -7 14 1 -23 4 19 9 -4 10 7 9 7 9 10 7 7 6 9 9 7 10 10 10 9 6 1 1 3 13 22 25 28 18 19 10 7
3 17 9 7 6 4 21 3 18 5 49 43 55 12 18 25 13 5 13 -8 6 21 7 11 11 5 4 4 4 7 11 7 7 10 9 5 2 2 0 8 20 26 17 11 9 11 20 20 24
7 9 9 5 12 19 18 20 20 18 9 5 60 78 -46 10 17 7 -2 11 24 13 9 9 11 15 12 11 12 12 9 8 9 11 6 8 -2 4 20 29 11 8 16 34 13 67 21 22 31
10 14 9 12 15 8 23 1 2 32 59 13 8 8 5 12 -5 22 10 3 8 6 5 6 5 6 7 7 6 12 11 9 7 10 1 -4 6 22 31 2 20 8 6 23 19 13 10 13 14
6 11 11 16 14 1 29 3 5 12 -6 29 -17 -1 25 -8 63 14 -5 -0 -7 0 12 7 7 5 6 9 15 9 9 6 10 -3 4 5 17 16 2 21 21 29 25 10 24 7 10 11 20
10 7 10 12 13 1 -5 2 7 -34 47 22 -18 48 2 15 -11 -16 -29 9 8 21 24 15 12 8 10 13 14 12 6 5 5 2 14 -6 26 15 15 15 19 24 20 21 -0 7 13 16 10
11 4 10 19 8 13 48 1 -5 -15 -1 16 31 1 13 4 9 10 14 10 -1 -2 -3 7 18 12 12 17 11 10 5 9 4 8 3 -6 26 17 18 9 10 19 20 14 7 7 16 10 9
Height
5850 5850 5851 5852 5856 5857 5860 5857 5853 5852 5852 5858 5860 5861 5861 5860 5859 5860 5861 5863 5864 5865 5864 5864 5865 5865 5866 5865 5865 5865 5865 5865 5865 5866 5866 5866 5865 5865 5864 5863 5863 5862 5862 5862 5861 5861 5861 5862 5861
5845 5845 5846 5847 5851 5853 5856 5851 5851 5850 5850 5853 5857 5858 5857 5853 5854 5856 5861 5859 5859 5860 5860 5860 5861 5861 5862 5861 5861 5860 5860 5860 5860 5861 5861 5863 5861 5860 5860 5859 5859 5858 5858 5858 5858 5859 5860 5861 5860
5840 5841 5842 5842 5845 5850 5852 5846 5844 5844 5845 5846 5848 5849 5851 5850 5850 5850 5853 5853 5851 5856 5857 5856 5857 5856 5857 5857 5856 5856 5856 5856 5856 5855 5856 5858 5857 5856 5856 5855 5855 5855 5855 5855 5855 5855 5856 5857 5858
5836 5837 5838 5838 5841 5844 5846 5845 5843 5841 5841 5839 5842 5842 5844 5845 5845 5847 5850 5847 5847 5849 5852 5851 5852 5851 5851 5851 5852 5852 5852 5852 5851 5851 5851 5851 5851 5852 5852 5851 5851 5851 5851 5851 5852 5853 5854 5854 5855
5830 5831 5830 5833 5837 5838 5839 5842 5839 5833 5833 5834 5838 5838 5836 5838 5839 5843 5847 5844 5842 5844 5847 5846 5846 5847 5846 5846 5846 5847 5847 5847 5847 5848 5847 5847 5847 5847 5848 5847 5847 5847 5847 5847 5847 5848 5849 5851 5852
5823 5823 5824 5828 5831 5833 5832 5831 5830 5824 5827 5828 5828 5830 5834 5831 5833 5840 5843 5842 5838 5839 5840 5841 5841 5841 5841 5841 5841 5841 5841 5841 5842 5842 5843 5842 5843 5843 5843 5842 5843 5843 5844 5844 5843 5844 5845 5846 5847
5817 5816 5818 5821 5826 5830 5831 5830 5825 5822 5821 5823 5823 5826 5827 5827 5824 5834 5837 5838 5834 5833 5835 5835 5835 5835 5836 5835 5835 5835 5835 5835 5836 5836 5837 5837 5838 5838 5837 5837 5838 5838 5839 5839 5839 5840 5840 5841 5843
5811 5810 5814 5818 5818 5822 5822 5823 5816 5816 5818 5815 5817 5821 5822 5820 5818 5823 5830 5830 5828 5830 5828 5829 5829 5829 5829 5829 5829 5829 5829 5830 5830 5830 5831 5832 5832 5832 5832 5832 5832 5832 5834 5834 5834 5834 5835 5836 5838
5805 5807 5811 5811 5810 5812 5812 5812 5812 5808 5809 5812 5812 5813 5816 5811 5814 5815 5820 5822 5820 5821 5823 5821 5822 5822 5822 5822 5823 5823 5823 5824 5825 5824 5825 5825 5826 5826 5826 5826 5826 5825 5827 5828 5829 5829 5830 5831 5833
5800 5801 5805 5804 5805 5805 5808 5809 5810 5804 5806 5806 5807 5803 5808 5807 5803 5807 5812 5813 5813 5809 5814 5814 5814 5814 5813 5815 5815 5816 5817 5817 5818 5818 5818 5819 5819 5819 5820 5820 5820 5820 5820 5821 5822 5822 5823 5825 5827
5794 5794 5795 5797 5797 5797 5797 5800 5802 5801 5801 5800 5798 5799 5799 5798 5801 5800 5802 5803 5803 5801 5802 5808 5806 5805 5807 5806 5807 5809 5809 5809 5809 5810 5811 5811 5812 5813 5814 5814 5814 5813 5813 5814 5814 5816 5816 5818 5820
5787 5789 5788 5790 5789 5789 5789 5788 5793 5795 5793 5793 5791 5790 5791 5788 5789 5791 5792 5794 5793 5790 5793 5799 5802 5799 5798 5797 5800 5800 5800 5800 5801 5802 5802 5803 5804 5806 5806 5807 5807 5807 5807 5807 5808 5809 5810 5811 5813
5780 5781 5780 5780 5778 5779 5779 5782 5781 5785 5785 5785 5784 5781 5780 5779 5779 5778 5782 5782 5782 5780 5783 5786 5790 5792 5791 5790 5789 5790 5791 5791 5792 5792 5793 5794 5795 5797 5799 5800 5801 5801 5800 5801 5802 5802 5802 5803 5804
5769 5770 5771 5772 5770 5767 5764 5771 5770 5773 5773 5773 5773 5772 5771 5769 5768 5769 5770 5770 5773 5774 5774 5774 5777 5782 5782 5781 5780 5780 5781 5782 5782 5784 5783 5786 5786 5788 5789 5791 5793 5794 5794 5793 5793 5793 5794 5794 5795
5757 5758 5762 5763 5761 5755 5747 5759 5758 5758 5755 5759 5761 5760 5759 5758 5756 5757 5759 5757 5760 5765 5767 5765 5766 5767 5769 5770 5771 5771 5770 5770 5772 5774 5775 5776 5776 5776 5780 5782 5782 5785 5786 5785 5784 5784 5785 5787 5788
5745 5747 5748 5755 5745 5743 5729 5742 5747 5744 5741 5743 5744 5746 5745 5743 5743 5741 5744 5746 5749 5751 5756 5757 5756 5757 5757 5759 5760 5760 5760 5760 5762 5764 5764 5765 5768 5768 5770 5771 5772 5773 5775 5776 5775 5775 5776 5776 5777
5734 5731 5730 5741 5729 5724 5714 5725 5732 5726 5723 5728 5728 5728 5730 5730 5725 5729 5730 5733 5738 5741 5744 5745 5745 5746 5746 5746 5748 5750 5750 5750 5751 5753 5755 5755 5756 5758 5759 5759 5761 5762 5764 5764 5765 5765 5766 5766 5767
5718 5713 5717 5720 5717 5705 5703 5701 5709 5711 5704 5705 5707 5709 5708 5708 5708 5711 5716 5722 5725 5730 5732 5732 5732 5733 5734 5736 5736 5738 5740 5741 5742 5743 5745 5745 5746 5746 5748 5750 5750 5752 5753 5754 5755 5756 5754 5754 5756
5704 5702 5697 5707 5701 5683 5690 5683 5680 5697 5690 5688 5691 5692 5694 5690 5687 5692 5701 5709 5714 5716 5718 5719 5721 5721 5723 5725 5726 5727 5729 5731 5732 5734 5734 5735 5735 5736 5739 5740 5739 5738 5740 5742 5742 5741 5740 5740 5743
5684 5682 5683 5684 5681 5668 5667 5666 5666 5672 5678 5680 5681 5679 5682 5674 5672 5673 5687 5695 5700 5704 5705 5707 5708 5709 5711 5713 5715 5717 5718 5718 5720 5722 5723 5724 5724 5724 5726 5728 5728 5728 5728 5728 5728 5726 5726 5727 5732
5672 5665 5667 5664 5663 5663 5650 5648 5651 5660 5658 5665 5665 5666 5669 5656 5659 5659 5675 5685 5687 5690 5690 5693 5695 5697 5699 5701 5703 5705 5706 5708 5709 5710 5712 5714 5715 5715 5715 5715 5715 5717 5716 5715 5714 5713 5713 5684 5704
5661 5657 5656 5657 5651 5650 5641 5630 5643 5643 5645 5648 5654 5649 5645 5639 5637 5656 5665 5672 5676 5673 5676 5679 5683 5686 5688 5690 5692 5694 5695 5697 5699 5700 5701 5702 5702 5702 5703 5703 5701 5699 5701 5699 5701 5699 5698 5703 5705
5651 5651 5651 5646 5642 5636 5640 5630 5625 5627 5633 5635 5637 5634 5629 5630 5637 5649 5655 5658 5662 5663 5663 5667 5670 5674 5677 5679 5681 5683 5684 5686 5688 5688 5689 5689 5689 5688 5688 5688 5687 5685 5684 5685 5686 5684 5684 5691 5691
5642 5642 5641 5638 5633 5629 5629 5621 5620 5617 5615 5619 5621 5626 5621 5626 5633 5642 5648 5648 5649 5651 5654 5656 5658 5662 5665 5668 5669 5671 5673 5674 5675 5676 5676 5675 5675 5675 5674 5673 5671 5670 5668 5664 5668 5664 5665 5670 5674
5637 5635 5631 5631 5628 5624 5619 5616 5611 5608 5603 5603 5608 5611 5608 5616 5625 5630 5635 5638 5641 5642 5642 5645 5647 5651 5653 5656 5658 5659 5662 5662 5662 5663 5664 5662 5661 5660 5658 5654 5651 5652 5650 5647 5646 5643 5647 5654 5658
5629 5629 5625 5621 5620 5618 5614 5610 5608 5604 5598 5596 5597 5599 5605 5611 5619 5624 5627 5630 5630 5631 5633 5634 5636 5639 5642 5644 5646 5646 5649 5650 5651 5651 5651 5647 5645 5643 5639 5637 5636 5635 5634 5631 5629 5632 5633 5638 5645
5621 5620 5617 5615 5614 5611 5611 5610 5605 5603 5595 5601 5596 5601 5606 5609 5614 5618 5622 5622 5622 5623 5624 5625 5627 5629 5632 5634 5635 5636 5637 5637 5639 5639 5637 5633 5629 5626 5624 5622 5622 5620 5619 5619 5617 5619 5624 5630 5633
5613 5612 5612 5610 5609 5607 5607 5606 5604 5599 5596 5591 5596 5600 5604 5607 5605 5607 5616 5616 5615 5616 5617 5616 5617 5619 5621 5622 5624 5625 5625 5626 5626 5627 5624 5620 5617 5612 5612 5609 5608 5605 5605 5608 5609 5613 5616 5621 5626
5605 5603 5605 5604 5604 5603 5603 5603 5597 5595 5590 5589 5592 5596 5599 5602 5602 5603 5606 5608 5607 5607 5608 5609 5609 5609 5610 5612 5613 5613 5614 5615 5615 5613 5610 5608 5605 5601 5599 5598 5595 5596 5596 5597 5602 5609 5609 5611 5612
5596 5596 5596 5597 5599 5599 5597 5597 5591 5589 5590 5585 5589 5593 5593 5596 5596 5598 5599 5600 5599 5599 5600 5601 5599 5598 5599 5601 5602 5602 5602 5601 5602 5600 5599 5597 5593 5590 5589 5586 5585 5585 5588 5590 5593 5597 5601 5604 5603